Weather History for Big Piney, WY

Change the Weather History Date:

Saturday, February 23, 2013

  Actual Average Record
Temperature  
Mean Temperature 15 °F 17 °F  
Max Temperature 24 °F 32 °F 44 °F (1995)
Min Temperature 5 °F 3 °F -19 °F (1993)
Degree Days  
Heating Degree Days 50 48  
Month to date heating degree days 1133 1179  
Since 1 July heating degree days 6607 7292  
Cooling Degree Days 0 0  
Month to date cooling degree days 0 0  
Year to date cooling degree days 0 0  
Moisture  
Dew Point 12 °F    
Average Humidity 79    
Maximum Humidity 91    
Minimum Humidity 67    
Precipitation  
Precipitation T in 0.01 in 0.01 in (2001)
Month to date precipitation 0.09 0.29  
Year to date precipitation 0.16 0.60  
Sea Level Pressure  
Sea Level Pressure 29.78 in    
Wind  
Wind Speed 8 mph (North)    
Max Wind Speed 25 mph    
Max Gust Speed 31 mph    
Visibility 7 miles    
Events Fog , Snow    
T = Trace of Precipitation, MM = Missing Value Source: NWS Daily Summary

Daily Weather History Graph

Daily Weather History Graph

Search for Another Location

Airport:

Trip Planner

Search our weather history database for the weather conditions in past years. The results will help you decide how hot, cold, wet, or windy it might be!

Date:

Astronomy

Feb. 23, 2013 Rise Set
Actual Time 7:05 AM MST 6:03 PM MST
Civil Twilight 6:36 AM MST 6:31 PM MST
Nautical Twilight 6:03 AM MST 7:04 PM MST
Astronomical Twilight 5:31 AM MST 7:36 PM MST
Moon 4:15 PM MST (2/23) 5:31 AM MST (2/23)
Length of Visible Light 11h 55m
Length of Day
10h 58m
Waxing Gibbous, 95% of the Moon is Illuminated
Feb 23
Waxing Gibbous
Feb 25
Full
Mar 4
Last Quarter
Mar 11
New
Mar 19
First Quarter

Hourly Weather History & Observations

Time (MST) Temp. Windchill Dew Point Humidity Pressure Visibility Wind Dir Wind Speed Gust Speed Precip Events Conditions
12:53 AM 8.1 °F -0.5 °F 3.9 °F 83% 29.97 in 10.0 mi NNW 4.6 mph - N/A   Scattered Clouds
1:53 AM 9.0 °F 2.4 °F 3.9 °F 80% 29.94 in 10.0 mi ENE 3.5 mph - N/A   Mostly Cloudy
2:53 AM 5.0 °F - 1.9 °F 87% 29.93 in 10.0 mi Calm Calm - N/A   Overcast
3:53 AM 5.0 °F -2.1 °F 1.0 °F 84% 29.90 in 10.0 mi East 3.5 mph - N/A   Mostly Cloudy
4:53 AM 9.0 °F 0.6 °F 6.1 °F 88% 29.88 in 10.0 mi WNW 4.6 mph - N/A   Overcast
5:53 AM 9.0 °F - 5.0 °F 84% 29.88 in 10.0 mi Calm Calm - N/A   Scattered Clouds
6:53 AM 8.1 °F -3.2 °F 5.0 °F 87% 29.90 in 10.0 mi ENE 6.9 mph - N/A   Mostly Cloudy
7:53 AM 10.0 °F 1.8 °F 5.0 °F 80% 29.88 in 10.0 mi NW 4.6 mph - N/A   Scattered Clouds
8:53 AM 15.1 °F 9.4 °F 10.0 °F 80% 29.86 in 10.0 mi NNW 3.5 mph - N/A   Overcast
9:53 AM 18.0 °F - 12.0 °F 78% 29.84 in 10.0 mi Calm Calm - N/A   Overcast
10:09 AM 17.6 °F - 12.2 °F 79% 29.68 in 2.0 mi Calm Calm - 0.00 in Snow Light Snow
10:23 AM 17.6 °F - 12.2 °F 79% 29.68 in 4.0 mi Calm Calm - 0.00 in Snow Light Snow
10:53 AM 21.9 °F 17.2 °F 15.1 °F 75% 29.80 in 10.0 mi East 3.5 mph - 0.00 in   Overcast
11:53 AM 21.9 °F - 16.0 °F 78% 29.78 in 10.0 mi Calm Calm - N/A   Overcast
12:53 PM 24.1 °F 19.7 °F 16.0 °F 71% 29.76 in 9.0 mi NE 3.5 mph - 0.00 in   Overcast
1:10 PM 21.2 °F 16.4 °F 15.8 °F 80% 29.63 in 1.8 mi ESE 3.5 mph - 0.00 in Snow Light Snow
1:23 PM 21.2 °F - 17.6 °F 86% 29.63 in 1.0 mi Calm Calm - 0.00 in Snow Light Snow
1:36 PM 21.2 °F 16.4 °F 17.6 °F 86% 29.63 in 2.0 mi SSE 3.5 mph - 0.00 in Snow Light Snow
1:53 PM 21.9 °F 17.2 °F 18.0 °F 85% 29.74 in 2.5 mi SSE 3.5 mph - 0.00 in Snow Light Snow
2:11 PM 23.0 °F 17.0 °F 17.6 °F 80% 29.62 in 5.0 mi South 4.6 mph - 0.00 in Snow Light Snow
2:53 PM 23.0 °F - 18.0 °F 81% 29.76 in 10.0 mi Calm Calm - 0.00 in   Overcast
3:37 PM 24.8 °F 16.1 °F 19.4 °F 80% 29.63 in 1.5 mi NW 8.1 mph - 0.00 in Snow Light Snow
3:46 PM 23.0 °F 13.9 °F 19.4 °F 86% 29.63 in 0.5 mi NNW 8.1 mph - 0.00 in Fog , Snow Snow
3:53 PM 23.0 °F 15.8 °F 19.0 °F 85% 29.78 in 0.5 mi North 5.8 mph - 0.00 in Fog , Snow Snow
4:01 PM 24.8 °F 15.3 °F 19.4 °F 80% 29.64 in 0.8 mi North 9.2 mph - 0.00 in Snow Light Snow
4:09 PM 23.0 °F 13.9 °F 19.4 °F 86% 29.64 in 1.0 mi North 8.1 mph - 0.00 in Snow Light Snow
4:26 PM 24.8 °F 13.4 °F 17.6 °F 74% 29.64 in 3.0 mi NNW 12.7 mph 16.1 mph 0.00 in Snow Light Snow
4:41 PM 23.0 °F 9.6 °F 12.2 °F 63% 29.65 in 10.0 mi NNW 16.1 mph - 0.00 in   Overcast
4:53 PM 23.0 °F 10.1 °F 12.0 °F 63% 29.77 in 10.0 mi NNW 15.0 mph - 0.00 in   Overcast
5:53 PM 19.0 °F 7.5 °F 10.0 °F 68% 29.81 in 10.0 mi NNW 10.4 mph - N/A   Mostly Cloudy
6:53 PM 19.9 °F 6.2 °F 10.9 °F 68% 29.84 in 10.0 mi NNW 15.0 mph - N/A   Overcast
7:53 PM 19.0 °F 1.6 °F 10.0 °F 68% 29.84 in 10.0 mi NNW 24.2 mph 29.9 mph N/A   Overcast
8:53 PM 18.0 °F 1.3 °F 10.0 °F 71% 29.84 in 10.0 mi NNW 20.7 mph 26.5 mph N/A   Overcast
9:53 PM 18.0 °F 1.3 °F 10.0 °F 71% 29.85 in 10.0 mi NNW 20.7 mph - N/A   Overcast
10:53 PM 18.0 °F 3.1 °F 10.0 °F 71% 29.84 in 9.0 mi North 16.1 mph - N/A   Overcast
11:40 PM 17.6 °F 1.7 °F 10.4 °F 73% 29.75 in 5.0 mi North 18.4 mph 24.2 mph 0.00 in Snow Light Snow
11:53 PM 18.0 °F 3.6 °F 10.0 °F 71% 29.85 in 10.0 mi NNW 15.0 mph - 0.00 in   Overcast